Theta_e
308 308 309 309 311 310 310 310 309 310 311 310 310 309 309 310 311 315 317 318 319 321 331 337 337 335 336 337 335 335 336 334
307 307 307 308 309 308 308 308 309 310 309 308 308 308 309 309 309 310 311 314 317 320 328 335 336 338 336 335 334 334 336 335
306 306 306 307 307 306 306 308 308 307 307 307 307 307 307 307 307 307 308 309 312 315 318 319 326 335 336 337 335 335 336 336
305 305 305 305 305 306 306 306 305 306 305 306 306 306 305 305 306 306 306 307 307 309 311 314 317 322 331 336 336 336 335 336
305 305 304 304 304 305 304 304 303 304 305 304 304 304 304 304 304 305 305 305 306 306 307 309 311 313 316 322 335 336 336 335
305 305 303 303 303 303 303 302 303 303 302 301 301 301 301 301 301 301 302 303 303 304 305 306 307 309 311 314 317 327 337 336
305 304 303 303 302 302 302 301 301 300 300 300 300 299 299 298 298 298 298 298 299 300 301 302 304 306 308 310 312 316 326 336
304 303 302 302 301 302 301 301 300 300 299 299 298 297 296 296 296 296 295 295 295 296 297 298 300 302 305 307 310 312 315 331
303 302 301 301 301 301 300 299 299 298 297 296 295 294 293 293 293 293 294 294 295 295 296 297 299 300 302 304 306 310 313 316
302 301 301 301 300 300 299 298 297 296 295 294 293 292 292 291 292 293 293 294 295 296 296 297 298 299 299 300 302 305 309 314
301 301 300 300 299 299 297 296 296 295 293 292 291 290 290 291 292 291 291 293 294 295 296 297 297 298 298 300 300 302 304 308
300 300 300 299 299 297 296 296 294 293 292 291 290 289 289 290 290 290 290 290 291 293 294 295 297 298 298 299 300 301 303 307
299 300 299 298 298 296 294 294 293 292 291 290 289 289 288 289 290 288 288 289 290 291 292 293 295 297 299 300 301 302 304 305
298 298 298 297 297 295 293 293 292 291 290 289 288 288 287 288 289 287 288 288 289 290 291 292 294 296 298 300 303 306 307 311
297 297 297 296 295 294 292 291 291 290 289 288 288 288 287 287 287 286 287 288 289 289 290 292 293 294 296 298 303 307 303 310
296 295 295 294 293 292 290 289 289 289 288 288 287 287 287 286 286 285 286 286 287 288 290 290 292 294 295 298 299 301 303 305
293 292 292 293 292 291 289 289 289 288 287 287 286 286 286 284 285 284 285 285 286 287 288 289 290 292 294 296 298 300 301 303
291 291 290 291 290 289 287 287 287 286 286 285 285 285 285 284 284 284 284 284 285 286 288 289 290 292 294 296 297 299 302 303
290 290 289 289 288 287 286 285 285 285 285 284 284 284 283 283 282 283 283 283 283 285 287 287 288 290 291 292 296 299 300 302
289 288 288 288 287 286 285 284 283 283 283 283 282 282 282 282 281 282 282 282 282 283 284 285 285 286 288 288 289 292 295 301
Wind_Speed
14 13 13 15 14 15 13 14 15 14 17 18 17 13 13 12 11 11 12 12 13 13 14 16 18 19 19 19 18 16 16 19
16 16 15 13 14 16 15 16 15 17 19 20 20 17 16 17 16 15 15 14 15 14 12 12 15 20 21 21 20 19 18 20
17 17 18 16 17 17 16 17 17 19 19 20 20 22 21 21 21 21 20 19 17 18 17 16 16 13 18 22 23 25 22 23
18 20 20 18 19 20 19 19 21 20 21 20 21 21 22 23 23 24 24 23 22 21 21 20 18 16 16 18 23 28 29 28
19 21 20 20 21 20 21 21 22 21 20 21 22 23 24 25 25 26 28 27 27 25 24 23 23 22 21 17 21 25 28 32
17 20 20 20 20 22 21 23 21 22 23 24 25 25 26 27 28 28 29 28 29 29 28 28 27 26 25 25 20 21 28 30
16 19 19 19 21 21 21 22 23 23 23 23 24 26 27 27 28 28 28 30 30 33 33 32 30 28 28 27 27 23 22 29
15 19 19 18 22 21 21 22 22 22 23 23 25 24 25 27 28 28 29 32 34 33 32 32 31 29 30 27 27 28 25 24
15 18 17 19 20 19 20 22 21 23 23 26 27 26 28 28 28 28 27 28 28 27 29 26 24 25 25 29 29 24 26 25
14 15 16 18 18 18 19 19 21 21 24 25 27 27 27 27 26 25 27 27 24 23 24 25 25 24 27 28 31 28 27 24
15 14 16 17 16 17 17 18 19 22 24 25 26 27 25 24 22 25 27 24 22 21 22 23 25 26 28 28 27 28 34 29
13 12 14 15 16 16 17 18 18 22 24 25 26 26 26 24 22 24 25 24 24 24 23 24 23 25 27 31 32 29 29 26
13 12 13 15 18 21 18 17 19 21 22 24 26 26 26 23 23 26 25 24 24 22 23 23 22 22 24 26 24 32 30 32
13 12 12 15 17 17 13 14 12 17 20 23 24 26 28 25 23 28 27 25 22 22 22 22 19 18 15 23 6 7 16 14
13 12 13 14 15 15 15 11 15 18 21 22 23 24 25 26 25 28 27 24 23 23 22 21 20 20 17 9 4 3 12 9
13 14 12 13 14 16 16 15 13 13 15 18 20 22 23 24 26 30 26 24 23 24 22 24 20 20 18 13 17 18 5 8
13 12 13 11 12 15 15 15 13 12 15 16 19 21 21 26 28 29 25 25 25 24 24 24 21 20 19 17 17 18 19 8
10 9 12 11 11 13 15 14 13 14 14 15 17 19 20 29 26 27 25 25 27 25 23 21 21 19 21 20 20 12 8 8
7 8 11 11 10 13 14 14 13 11 12 15 17 19 23 28 26 27 25 26 26 24 22 21 22 21 22 20 20 20 22 22
6 7 9 9 9 10 12 13 12 11 12 14 16 17 21 22 22 24 25 25 26 23 22 22 20 20 22 26 23 19 18 18
Wind_Direction
64 66 66 68 64 53 46 34 27 19 20 13 9 0 348 345 343 342 340 332 332 320 318 298 285 278 270 266 264 258 258 267
49 49 51 57 51 42 39 37 29 24 17 14 6 1 354 348 341 335 333 327 324 326 324 316 301 287 277 272 265 258 251 259
41 42 43 41 39 38 38 36 25 16 14 11 4 359 356 351 347 341 333 327 317 310 314 322 320 301 288 277 269 261 254 253
40 40 38 38 39 39 39 33 26 22 16 10 6 1 357 354 350 345 338 334 327 314 306 306 316 322 311 303 284 267 261 256
42 38 36 38 40 40 38 32 28 30 24 11 2 358 356 354 350 346 341 340 334 328 320 315 311 310 308 308 301 288 271 263
43 35 37 42 44 42 39 31 30 26 16 12 6 3 359 354 349 345 341 337 333 330 325 319 313 306 301 300 295 295 275 272
43 33 37 41 42 41 37 33 26 21 23 19 13 5 359 353 348 343 340 331 327 322 320 318 316 311 303 299 294 293 291 275
43 36 38 39 37 39 33 28 26 27 21 16 9 4 358 351 347 345 341 336 330 326 321 315 312 311 308 303 299 288 285 284
48 35 38 38 34 32 27 27 24 21 17 8 6 2 357 353 351 349 346 344 342 336 332 328 316 312 306 301 295 295 284 280
59 42 36 29 34 28 27 29 24 23 12 14 10 7 6 0 0 354 342 338 337 333 330 324 321 318 312 304 301 294 284 273
53 45 38 27 26 25 30 32 30 22 21 15 14 10 8 6 1 351 346 339 335 331 325 320 316 314 311 306 297 288 284 279
57 53 38 22 19 19 28 35 32 23 23 19 17 15 10 7 357 351 345 339 330 325 322 319 316 310 309 304 299 287 281 271
62 63 45 22 19 21 17 28 24 22 22 18 19 17 10 7 352 348 345 336 326 326 322 320 315 318 311 311 305 287 268 268
59 69 51 35 24 27 25 24 16 19 17 16 13 12 15 8 354 349 344 334 329 328 325 317 312 316 318 313 317 336 16 311
67 72 56 37 22 19 25 27 20 16 13 9 10 9 6 6 353 353 345 337 331 327 324 320 316 312 307 292 315 318 345 315
84 73 61 38 21 24 29 36 28 12 6 1 3 9 5 1 2 359 345 342 337 332 324 319 311 304 308 289 278 295 299 314
88 76 59 45 29 27 30 35 28 10 6 3 2 7 3 11 11 357 347 348 343 335 333 327 315 298 294 293 289 282 273 267
89 73 64 53 38 31 34 35 27 17 5 3 5 5 359 20 14 355 352 353 350 346 347 339 334 324 310 298 275 267 275 276
90 70 69 62 47 36 40 37 32 29 7 7 11 2 6 16 12 355 357 1 359 356 358 355 353 346 342 323 322 260 265 272
89 76 77 69 52 45 43 39 39 38 25 23 25 15 14 17 10 0 7 13 6 8 6 5 4 5 357 359 346 339 336 302